Weather History for Chamberlain, SD

Change the Weather History Date:

Saturday, January 26, 2013

  Actual Average Record
Temperature  
Mean Temperature 24 °F -  
Max Temperature 39 °F 28 °F 63 °F (2006)
Min Temperature 10 °F 11 °F -9 °F (1997)
Degree Days  
Heating Degree Days 40    
Moisture  
Dew Point 15 °F    
Average Humidity 76    
Maximum Humidity 85    
Minimum Humidity 62    
Precipitation  
Precipitation 0.00 in - - ()
Sea Level Pressure  
Sea Level Pressure 30.04 in    
Wind  
Wind Speed 12 mph (East)    
Max Wind Speed 16 mph    
Max Gust Speed -    
Averages and records for this station are not official NWS values.
T = Trace of Precipitation, MM = Missing Value Source: NWS Daily Summary

Daily Weather History Graph

Daily Weather History Graph

Search for Another Location

Airport:

Trip Planner

Search our weather history database for the weather conditions in past years. The results will help you decide how hot, cold, wet, or windy it might be!

Date:

Astronomy

Jan. 26, 2013 Rise Set
Actual Time 7:59 AM CST 5:40 PM CST
Civil Twilight 7:28 AM CST 6:11 PM CST
Nautical Twilight 6:54 AM CST 6:46 PM CST
Astronomical Twilight 6:20 AM CST 7:20 PM CST
Moon 5:38 PM CST (1/26) 7:17 AM CST (1/26)
Length of Visible Light 10h 42m
Length of Day
9h 40m
Full, 100% of the Moon is Illuminated
Jan 26
Full
Jan 26
Full
Feb 3
Last Quarter
Feb 10
New
Feb 17
First Quarter

Hourly Weather History & Observations

Time (CST) Temp. Windchill Dew Point Humidity Pressure Visibility Wind Dir Wind Speed Gust Speed Precip Events Conditions
12:52 AM 10.9 °F -4.1 °F 5.0 °F 77% 30.23 in - ESE 12.7 mph - N/A   Unknown
1:52 AM 10.0 °F -4.5 °F 3.9 °F 76% 30.20 in - ESE 11.5 mph - N/A   Unknown
2:52 AM 10.0 °F -7.1 °F 3.9 °F 76% 30.19 in - ESE 16.1 mph - N/A   Unknown
3:52 AM 10.0 °F -5.2 °F 3.0 °F 73% 30.17 in - ESE 12.7 mph - N/A   Unknown
4:52 AM 10.0 °F -2.9 °F 3.9 °F 76% 30.15 in - ESE 9.2 mph - N/A   Unknown
5:52 AM 10.0 °F -6.5 °F 3.9 °F 76% 30.13 in - SE 15.0 mph - N/A   Unknown
6:52 AM 10.9 °F -5.4 °F 5.0 °F 77% 30.12 in - SE 15.0 mph - N/A   Unknown
7:52 AM 10.9 °F -5.9 °F 6.1 °F 81% 30.12 in - SE 16.1 mph - N/A   Unknown
8:52 AM 12.0 °F -4.0 °F 7.0 °F 80% 30.10 in - SE 15.0 mph - N/A   Unknown
9:52 AM 16.0 °F 0.6 °F 10.0 °F 77% 30.08 in - SE 16.1 mph - N/A   Unknown
10:52 AM 19.9 °F 6.2 °F 12.9 °F 74% 30.06 in - SE 15.0 mph - N/A   Unknown
11:52 AM 25.0 °F 12.6 °F 17.1 °F 72% 30.03 in - ESE 15.0 mph - N/A   Unknown
12:52 PM 30.0 °F 20.0 °F 21.0 °F 69% 30.00 in - SE 12.7 mph - N/A   Unknown
1:52 PM 35.1 °F 27.9 °F 24.1 °F 64% 29.97 in - ESE 9.2 mph - N/A   Unknown
2:52 PM 37.9 °F 30.9 °F 26.1 °F 62% 29.94 in - ENE 10.4 mph - N/A   Unknown
3:52 PM 39.0 °F 32.3 °F 28.0 °F 65% 29.94 in - East 10.4 mph - N/A   Unknown
4:52 PM 37.0 °F 30.4 °F 28.0 °F 70% 29.93 in - East 9.2 mph - N/A   Unknown
5:52 PM 33.1 °F 26.9 °F 26.1 °F 75% 29.94 in - East 6.9 mph - N/A   Unknown
6:52 PM 30.0 °F 23.2 °F 24.1 °F 79% 29.95 in - East 6.9 mph - N/A   Unknown
7:52 PM 28.0 °F 21.7 °F 24.1 °F 85% 29.94 in - NNE 5.8 mph - N/A   Unknown
8:52 PM 27.0 °F 20.5 °F 21.9 °F 81% 29.93 in - NNE 5.8 mph - N/A   Unknown
9:52 PM 25.0 °F 20.7 °F 21.0 °F 85% 29.92 in - North 3.5 mph - N/A   Unknown
10:52 PM 25.0 °F 20.7 °F 21.0 °F 85% 29.91 in - NNE 3.5 mph - N/A   Unknown
11:52 PM 25.0 °F 15.5 °F 19.9 °F 81% 29.90 in - North 9.2 mph - N/A   Unknown